owner,sensor,date,latitude,longitude,sea_water_turbidity,qcFlag 
NERRS,ioos:station:NOAA.NERRS:marabwq:1,2016-01-01T03:45:00Z,27.9798,-97.0287,5.0,1111122 
NERRS,ioos:station:NOAA.NERRS:marabwq:1,2016-01-01T04:45:00Z,27.9798,-97.0287,5.0,1111122 
NERRS,ioos:station:NOAA.NERRS:marabwq:1,2016-01-01T05:45:00Z,27.9798,-97.0287,5.0,1111122 
NERRS,ioos:station:NOAA.NERRS:marabwq:1,2016-01-01T06:45:00Z,27.9798,-97.0287,6.0,1111122 
NERRS,ioos:station:NOAA.NERRS:marabwq:1,2016-01-01T07:45:00Z,27.9798,-97.0287,6.0,1111122 
NERRS,ioos:station:NOAA.NERRS:marabwq:1,2016-01-01T08:45:00Z,27.9798,-97.0287,9.0,1111122 
NERRS,ioos:station:NOAA.NERRS:marabwq:1,2016-01-01T10:45:00Z,27.9798,-97.0287,22.0,1111122 
NERRS,ioos:station:NOAA.NERRS:marabwq:1,2016-01-01T11:45:00Z,27.9798,-97.0287,31.0,1111122 
NERRS,ioos:station:NOAA.NERRS:marabwq:1,2016-01-01T12:45:00Z,27.9798,-97.0287,38.0,1111122 
NERRS,ioos:station:NOAA.NERRS:marabwq:1,2016-01-01T13:45:00Z,27.9798,-97.0287,58.0,1111122 
NERRS,ioos:station:NOAA.NERRS:marabwq:1,2016-01-01T14:45:00Z,27.9798,-97.0287,64.0,1111122 
NERRS,ioos:station:NOAA.NERRS:marabwq:1,2016-01-01T16:45:00Z,27.9798,-97.0287,74.0,1111122 
NERRS,ioos:station:NOAA.NERRS:marabwq:1,2016-01-01T17:45:00Z,27.9798,-97.0287,68.0,1111122 
NERRS,ioos:station:NOAA.NERRS:marabwq:1,2016-01-02T20:45:00Z,27.9798,-97.0287,37.0,1111122 
NERRS,ioos:station:NOAA.NERRS:marabwq:1,2016-01-02T21:45:00Z,27.9798,-97.0287,15.0,1111122 
NERRS,ioos:station:NOAA.NERRS:marabwq:1,2016-01-02T22:45:00Z,27.9798,-97.0287,17.0,1111122 
NERRS,ioos:station:NOAA.NERRS:marabwq:1,2016-01-02T23:45:00Z,27.9798,-97.0287,22.0,1111122 
NERRS,ioos:station:NOAA.NERRS:marabwq:1,2016-01-03T01:45:00Z,27.9798,-97.0287,35.0,1111122 
NERRS,ioos:station:NOAA.NERRS:marabwq:1,2016-01-03T02:45:00Z,27.9798,-97.0287,34.0,1111122 
NERRS,ioos:station:NOAA.NERRS:marabwq:1,2016-01-03T03:45:00Z,27.9798,-97.0287,23.0,1111122 
NERRS,ioos:station:NOAA.NERRS:marabwq:1,2016-01-03T04:45:00Z,27.9798,-97.0287,17.0,1111122 
NERRS,ioos:station:NOAA.NERRS:marabwq:1,2016-01-03T05:45:00Z,27.9798,-97.0287,18.0,1111122 
NERRS,ioos:station:NOAA.NERRS:marabwq:1,2016-01-03T07:45:00Z,27.9798,-97.0287,34.0,1111122 
NERRS,ioos:station:NOAA.NERRS:marabwq:1,2016-01-03T08:45:00Z,27.9798,-97.0287,21.0,1111122 
NERRS,ioos:station:NOAA.NERRS:marabwq:1,2016-01-03T09:45:00Z,27.9798,-97.0287,20.0,1111122 
NERRS,ioos:station:NOAA.NERRS:marabwq:1,2016-01-03T10:45:00Z,27.9798,-97.0287,17.0,1111122 
NERRS,ioos:station:NOAA.NERRS:marabwq:1,2016-01-03T11:45:00Z,27.9798,-97.0287,24.0,1111122 
NERRS,ioos:station:NOAA.NERRS:marabwq:1,2016-01-03T12:45:00Z,27.9798,-97.0287,20.0,1111122 
NERRS,ioos:station:NOAA.NERRS:marabwq:1,2016-01-03T13:45:00Z,27.9798,-97.0287,28.0,1111122 
NERRS,ioos:station:NOAA.NERRS:marabwq:1,2016-01-03T14:45:00Z,27.9798,-97.0287,21.0,1111122 
NERRS,ioos:station:NOAA.NERRS:marabwq:1,2016-01-03T16:45:00Z,27.9798,-97.0287,12.0,1111122 
NERRS,ioos:station:NOAA.NERRS:marabwq:1,2016-01-03T17:45:00Z,27.9798,-97.0287,13.0,1111122 
NERRS,ioos:station:NOAA.NERRS:marabwq:1,2016-01-03T18:45:00Z,27.9798,-97.0287,10.0,1111122 
NERRS,ioos:station:NOAA.NERRS:marabwq:1,2016-01-03T19:45:00Z,27.9798,-97.0287,10.0,1111122 
NERRS,ioos:station:NOAA.NERRS:marabwq:1,2016-01-03T22:45:00Z,27.9798,-97.0287,8.0,1111122 
NERRS,ioos:station:NOAA.NERRS:marabwq:1,2016-01-04T00:45:00Z,27.9798,-97.0287,7.0,1111122 
NERRS,ioos:station:NOAA.NERRS:marabwq:1,2016-01-04T01:45:00Z,27.9798,-97.0287,7.0,1111122 
NERRS,ioos:station:NOAA.NERRS:marabwq:1,2016-01-04T02:45:00Z,27.9798,-97.0287,8.0,1111122 
NERRS,ioos:station:NOAA.NERRS:marabwq:1,2016-01-04T03:45:00Z,27.9798,-97.0287,7.0,1111122 
NERRS,ioos:station:NOAA.NERRS:marabwq:1,2016-01-04T05:45:00Z,27.9798,-97.0287,5.0,1111122 
NERRS,ioos:station:NOAA.NERRS:marabwq:1,2016-01-04T06:45:00Z,27.9798,-97.0287,6.0,1111122 
NERRS,ioos:station:NOAA.NERRS:marabwq:1,2016-01-04T07:45:00Z,27.9798,-97.0287,5.0,1111122 
NERRS,ioos:station:NOAA.NERRS:marabwq:1,2016-01-04T08:45:00Z,27.9798,-97.0287,8.0,1111122 
NERRS,ioos:station:NOAA.NERRS:marabwq:1,2016-01-04T09:45:00Z,27.9798,-97.0287,6.0,1111122 
NERRS,ioos:station:NOAA.NERRS:marabwq:1,2016-01-04T10:45:00Z,27.9798,-97.0287,6.0,1111122 
NERRS,ioos:station:NOAA.NERRS:marabwq:1,2016-01-04T12:45:00Z,27.9798,-97.0287,4.0,1111122 
NERRS,ioos:station:NOAA.NERRS:marabwq:1,2016-01-04T13:45:00Z,27.9798,-97.0287,4.0,1111122 
NERRS,ioos:station:NOAA.NERRS:marabwq:1,2016-01-04T14:45:00Z,27.9798,-97.0287,4.0,1111122 
NERRS,ioos:station:NOAA.NERRS:marabwq:1,2016-01-04T15:45:00Z,27.9798,-97.0287,3.0,1111122 
NERRS,ioos:station:NOAA.NERRS:marabwq:1,2016-01-04T16:45:00Z,27.9798,-97.0287,6.0,1111122 
NERRS,ioos:station:NOAA.NERRS:marabwq:1,2016-01-04T17:45:00Z,27.9798,-97.0287,4.0,1111122 
NERRS,ioos:station:NOAA.NERRS:marabwq:1,2016-01-04T18:45:00Z,27.9798,-97.0287,5.0,1111122 
NERRS,ioos:station:NOAA.NERRS:marabwq:1,2016-01-04T19:45:00Z,27.9798,-97.0287,5.0,1111122 
NERRS,ioos:station:NOAA.NERRS:marabwq:1,2016-01-04T20:45:00Z,27.9798,-97.0287,41.0,1111122 
NERRS,ioos:station:NOAA.NERRS:marabwq:1,2016-01-04T21:45:00Z,27.9798,-97.0287,4.0,1111122 
NERRS,ioos:station:NOAA.NERRS:marabwq:1,2016-01-04T22:45:00Z,27.9798,-97.0287,4.0,1111122 
NERRS,ioos:station:NOAA.NERRS:marabwq:1,2016-01-04T23:45:00Z,27.9798,-97.0287,3.0,1111122 
NERRS,ioos:station:NOAA.NERRS:marabwq:1,2016-01-05T00:45:00Z,27.9798,-97.0287,3.0,1111122 
NERRS,ioos:station:NOAA.NERRS:marabwq:1,2016-01-05T01:45:00Z,27.9798,-97.0287,3.0,1111122 
NERRS,ioos:station:NOAA.NERRS:marabwq:1,2016-01-05T02:45:00Z,27.9798,-97.0287,3.0,1111122 
NERRS,ioos:station:NOAA.NERRS:marabwq:1,2016-01-05T03:45:00Z,27.9798,-97.0287,3.0,1111122 
NERRS,ioos:station:NOAA.NERRS:marabwq:1,2016-01-05T04:45:00Z,27.9798,-97.0287,3.0,1111122 
NERRS,ioos:station:NOAA.NERRS:marabwq:1,2016-01-05T05:45:00Z,27.9798,-97.0287,3.0,1111122 
NERRS,ioos:station:NOAA.NERRS:marabwq:1,2016-01-05T06:45:00Z,27.9798,-97.0287,3.0,1111122 
NERRS,ioos:station:NOAA.NERRS:marabwq:1,2016-01-05T07:45:00Z,27.9798,-97.0287,2.0,1111122 
NERRS,ioos:station:NOAA.NERRS:marabwq:1,2016-01-05T09:45:00Z,27.9798,-97.0287,3.0,1111122 
NERRS,ioos:station:NOAA.NERRS:marabwq:1,2016-01-05T10:45:00Z,27.9798,-97.0287,3.0,1111122 
NERRS,ioos:station:NOAA.NERRS:marabwq:1,2016-01-05T11:45:00Z,27.9798,-97.0287,3.0,1111122 
NERRS,ioos:station:NOAA.NERRS:marabwq:1,2016-01-05T12:45:00Z,27.9798,-97.0287,4.0,1111122 
NERRS,ioos:station:NOAA.NERRS:marabwq:1,2016-01-05T13:45:00Z,27.9798,-97.0287,4.0,1111122 
NERRS,ioos:station:NOAA.NERRS:marabwq:1,2016-01-05T14:45:00Z,27.9798,-97.0287,3.0,1111122 
NERRS,ioos:station:NOAA.NERRS:marabwq:1,2016-01-05T15:45:00Z,27.9798,-97.0287,2.0,1111122 
NERRS,ioos:station:NOAA.NERRS:marabwq:1,2016-01-06T14:45:00Z,27.9798,-97.0287,4.0,1111122 
NERRS,ioos:station:NOAA.NERRS:marabwq:1,2016-01-06T15:45:00Z,27.9798,-97.0287,3.0,1111122 
NERRS,ioos:station:NOAA.NERRS:marabwq:1,2016-01-06T16:45:00Z,27.9798,-97.0287,2.0,1111122 
NERRS,ioos:station:NOAA.NERRS:marabwq:1,2016-01-06T17:45:00Z,27.9798,-97.0287,2.0,1111122 
NERRS,ioos:station:NOAA.NERRS:marabwq:1,2016-01-06T18:45:00Z,27.9798,-97.0287,2.0,1111122 
NERRS,ioos:station:NOAA.NERRS:marabwq:1,2016-01-06T19:45:00Z,27.9798,-97.0287,2.0,1111122 
NERRS,ioos:station:NOAA.NERRS:marabwq:1,2016-01-06T20:45:00Z,27.9798,-97.0287,2.0,1111122 
NERRS,ioos:station:NOAA.NERRS:marabwq:1,2016-01-06T21:45:00Z,27.9798,-97.0287,2.0,1111122 
NERRS,ioos:station:NOAA.NERRS:marabwq:1,2016-01-06T22:45:00Z,27.9798,-97.0287,2.0,1111122 
NERRS,ioos:station:NOAA.NERRS:marabwq:1,2016-01-06T23:45:00Z,27.9798,-97.0287,3.0,1111122 
NERRS,ioos:station:NOAA.NERRS:marabwq:1,2016-01-07T00:45:00Z,27.9798,-97.0287,2.0,1111122 
NERRS,ioos:station:NOAA.NERRS:marabwq:1,2016-01-07T01:45:00Z,27.9798,-97.0287,5.0,1111122 
NERRS,ioos:station:NOAA.NERRS:marabwq:1,2016-01-07T02:45:00Z,27.9798,-97.0287,3.0,1111122 
NERRS,ioos:station:NOAA.NERRS:marabwq:1,2016-01-07T03:45:00Z,27.9798,-97.0287,2.0,1111122 
NERRS,ioos:station:NOAA.NERRS:marabwq:1,2016-01-07T04:45:00Z,27.9798,-97.0287,3.0,1111122 
NERRS,ioos:station:NOAA.NERRS:marabwq:1,2016-01-07T05:45:00Z,27.9798,-97.0287,3.0,1111122 
NERRS,ioos:station:NOAA.NERRS:marabwq:1,2016-01-07T06:45:00Z,27.9798,-97.0287,3.0,1111122 
NERRS,ioos:station:NOAA.NERRS:marabwq:1,2016-01-07T07:45:00Z,27.9798,-97.0287,4.0,1111122 
NERRS,ioos:station:NOAA.NERRS:marabwq:1,2016-01-07T09:45:00Z,27.9798,-97.0287,5.0,1111122 
NERRS,ioos:station:NOAA.NERRS:marabwq:1,2016-01-07T10:45:00Z,27.9798,-97.0287,4.0,1111122 
NERRS,ioos:station:NOAA.NERRS:marabwq:1,2016-01-07T11:45:00Z,27.9798,-97.0287,4.0,1111122 
NERRS,ioos:station:NOAA.NERRS:marabwq:1,2016-01-07T12:45:00Z,27.9798,-97.0287,4.0,1111122 
NERRS,ioos:station:NOAA.NERRS:marabwq:1,2016-01-07T13:45:00Z,27.9798,-97.0287,3.0,1111122 
NERRS,ioos:station:NOAA.NERRS:marabwq:1,2016-01-07T14:45:00Z,27.9798,-97.0287,4.0,1111122 
NERRS,ioos:station:NOAA.NERRS:marabwq:1,2016-01-07T15:45:00Z,27.9798,-97.0287,5.0,1111122 
NERRS,ioos:station:NOAA.NERRS:marabwq:1,2016-01-07T16:45:00Z,27.9798,-97.0287,3.0,1111122 
NERRS,ioos:station:NOAA.NERRS:marabwq:1,2016-01-07T17:45:00Z,27.9798,-97.0287,5.0,1111122 
NERRS,ioos:station:NOAA.NERRS:marabwq:1,2016-01-07T18:45:00Z,27.9798,-97.0287,2.0,1111122 
NERRS,ioos:station:NOAA.NERRS:marabwq:1,2016-01-07T19:45:00Z,27.9798,-97.0287,2.0,1111122 
NERRS,ioos:station:NOAA.NERRS:marabwq:1,2016-01-07T20:45:00Z,27.9798,-97.0287,1.0,1111122 
NERRS,ioos:station:NOAA.NERRS:marabwq:1,2016-01-07T21:45:00Z,27.9798,-97.0287,1.0,1111122 
NERRS,ioos:station:NOAA.NERRS:marabwq:1,2016-01-07T22:45:00Z,27.9798,-97.0287,1.0,1111122 
NERRS,ioos:station:NOAA.NERRS:marabwq:1,2016-01-07T23:45:00Z,27.9798,-97.0287,1.0,1111122 
NERRS,ioos:station:NOAA.NERRS:marabwq:1,2016-01-08T00:45:00Z,27.9798,-97.0287,2.0,1111122 
NERRS,ioos:station:NOAA.NERRS:marabwq:1,2016-01-08T01:45:00Z,27.9798,-97.0287,2.0,1111122 
NERRS,ioos:station:NOAA.NERRS:marabwq:1,2016-01-08T02:45:00Z,27.9798,-97.0287,3.0,1111122 
NERRS,ioos:station:NOAA.NERRS:marabwq:1,2016-01-08T03:45:00Z,27.9798,-97.0287,2.0,1111122 
NERRS,ioos:station:NOAA.NERRS:marabwq:1,2016-01-08T04:45:00Z,27.9798,-97.0287,2.0,1111122 
NERRS,ioos:station:NOAA.NERRS:marabwq:1,2016-01-08T05:45:00Z,27.9798,-97.0287,3.0,1111122 
NERRS,ioos:station:NOAA.NERRS:marabwq:1,2016-01-08T06:45:00Z,27.9798,-97.0287,4.0,1111122 
NERRS,ioos:station:NOAA.NERRS:marabwq:1,2016-01-08T07:45:00Z,27.9798,-97.0287,3.0,1111122 
NERRS,ioos:station:NOAA.NERRS:marabwq:1,2016-01-08T08:45:00Z,27.9798,-97.0287,4.0,1111122 
NERRS,ioos:station:NOAA.NERRS:marabwq:1,2016-01-08T09:45:00Z,27.9798,-97.0287,5.0,1111122 
NERRS,ioos:station:NOAA.NERRS:marabwq:1,2016-01-08T10:45:00Z,27.9798,-97.0287,4.0,1111122 
NERRS,ioos:station:NOAA.NERRS:marabwq:1,2016-01-08T11:45:00Z,27.9798,-97.0287,4.0,1111122 
NERRS,ioos:station:NOAA.NERRS:marabwq:1,2016-01-08T12:45:00Z,27.9798,-97.0287,3.0,1111122 
NERRS,ioos:station:NOAA.NERRS:marabwq:1,2016-01-08T13:45:00Z,27.9798,-97.0287,3.0,1111122 
NERRS,ioos:station:NOAA.NERRS:marabwq:1,2016-01-08T14:45:00Z,27.9798,-97.0287,30.0,1111122 
NERRS,ioos:station:NOAA.NERRS:marabwq:1,2016-01-08T15:45:00Z,27.9798,-97.0287,3.0,1111122 
NERRS,ioos:station:NOAA.NERRS:marabwq:1,2016-01-08T16:45:00Z,27.9798,-97.0287,3.0,1111122 
NERRS,ioos:station:NOAA.NERRS:marabwq:1,2016-01-08T17:45:00Z,27.9798,-97.0287,3.0,1111122 
NERRS,ioos:station:NOAA.NERRS:marabwq:1,2016-01-08T18:45:00Z,27.9798,-97.0287,2.0,1111122 
NERRS,ioos:station:NOAA.NERRS:marabwq:1,2016-01-08T19:45:00Z,27.9798,-97.0287,3.0,1111122 
NERRS,ioos:station:NOAA.NERRS:marabwq:1,2016-01-08T20:45:00Z,27.9798,-97.0287,3.0,1111122 
NERRS,ioos:station:NOAA.NERRS:marabwq:1,2016-01-08T21:45:00Z,27.9798,-97.0287,3.0,1111122 
NERRS,ioos:station:NOAA.NERRS:marabwq:1,2016-01-08T22:45:00Z,27.9798,-97.0287,2.0,1111122 
NERRS,ioos:station:NOAA.NERRS:marabwq:1,2016-01-08T23:45:00Z,27.9798,-97.0287,2.0,1111122 
NERRS,ioos:station:NOAA.NERRS:marabwq:1,2016-01-09T00:45:00Z,27.9798,-97.0287,1.0,1111122 
NERRS,ioos:station:NOAA.NERRS:marabwq:1,2016-01-09T01:45:00Z,27.9798,-97.0287,2.0,1111122 
NERRS,ioos:station:NOAA.NERRS:marabwq:1,2016-01-09T02:45:00Z,27.9798,-97.0287,1.0,1111122 
NERRS,ioos:station:NOAA.NERRS:marabwq:1,2016-01-09T03:45:00Z,27.9798,-97.0287,1.0,1111122 
NERRS,ioos:station:NOAA.NERRS:marabwq:1,2016-01-09T04:45:00Z,27.9798,-97.0287,2.0,1111122 
NERRS,ioos:station:NOAA.NERRS:marabwq:1,2016-01-09T05:45:00Z,27.9798,-97.0287,2.0,1111122 
NERRS,ioos:station:NOAA.NERRS:marabwq:1,2016-01-09T06:45:00Z,27.9798,-97.0287,2.0,1111122 
NERRS,ioos:station:NOAA.NERRS:marabwq:1,2016-01-09T07:45:00Z,27.9798,-97.0287,2.0,1111122 
NERRS,ioos:station:NOAA.NERRS:marabwq:1,2016-01-09T09:45:00Z,27.9798,-97.0287,2.0,1111122 
NERRS,ioos:station:NOAA.NERRS:marabwq:1,2016-01-09T10:45:00Z,27.9798,-97.0287,1.0,1111122 
NERRS,ioos:station:NOAA.NERRS:marabwq:1,2016-01-09T11:45:00Z,27.9798,-97.0287,1.0,1111122 
NERRS,ioos:station:NOAA.NERRS:marabwq:1,2016-01-09T12:45:00Z,27.9798,-97.0287,1.0,1111122 
NERRS,ioos:station:NOAA.NERRS:marabwq:1,2016-01-09T13:45:00Z,27.9798,-97.0287,1.0,1111122 
NERRS,ioos:station:NOAA.NERRS:marabwq:1,2016-01-09T14:45:00Z,27.9798,-97.0287,1.0,1111122 
NERRS,ioos:station:NOAA.NERRS:marabwq:1,2016-01-09T15:45:00Z,27.9798,-97.0287,1.0,1111122 
NERRS,ioos:station:NOAA.NERRS:marabwq:1,2016-01-09T16:45:00Z,27.9798,-97.0287,1.0,1111122 
NERRS,ioos:station:NOAA.NERRS:marabwq:1,2016-01-09T17:45:00Z,27.9798,-97.0287,1.0,1111122 
NERRS,ioos:station:NOAA.NERRS:marabwq:1,2016-01-09T18:45:00Z,27.9798,-97.0287,1.0,1111122 
NERRS,ioos:station:NOAA.NERRS:marabwq:1,2016-01-09T19:45:00Z,27.9798,-97.0287,1.0,1111122 
NERRS,ioos:station:NOAA.NERRS:marabwq:1,2016-01-09T20:45:00Z,27.9798,-97.0287,1.0,1111122 
NERRS,ioos:station:NOAA.NERRS:marabwq:1,2016-01-09T21:45:00Z,27.9798,-97.0287,1.0,1111122 
NERRS,ioos:station:NOAA.NERRS:marabwq:1,2016-01-09T22:45:00Z,27.9798,-97.0287,1.0,1111122 
NERRS,ioos:station:NOAA.NERRS:marabwq:1,2016-01-10T00:45:00Z,27.9798,-97.0287,1.0,1111122 
NERRS,ioos:station:NOAA.NERRS:marabwq:1,2016-01-10T01:45:00Z,27.9798,-97.0287,2.0,1111122 
NERRS,ioos:station:NOAA.NERRS:marabwq:1,2016-01-10T02:45:00Z,27.9798,-97.0287,18.0,1111122 
NERRS,ioos:station:NOAA.NERRS:marabwq:1,2016-01-10T03:45:00Z,27.9798,-97.0287,25.0,1111122 
NERRS,ioos:station:NOAA.NERRS:marabwq:1,2016-01-10T04:45:00Z,27.9798,-97.0287,30.0,1111122 
NERRS,ioos:station:NOAA.NERRS:marabwq:1,2016-01-10T05:45:00Z,27.9798,-97.0287,33.0,1111122 
NERRS,ioos:station:NOAA.NERRS:marabwq:1,2016-01-10T06:45:00Z,27.9798,-97.0287,45.0,1111122 
NERRS,ioos:station:NOAA.NERRS:marabwq:1,2016-01-10T07:45:00Z,27.9798,-97.0287,62.0,1111122 
NERRS,ioos:station:NOAA.NERRS:marabwq:1,2016-01-10T08:45:00Z,27.9798,-97.0287,45.0,1111122 
NERRS,ioos:station:NOAA.NERRS:marabwq:1,2016-01-10T09:45:00Z,27.9798,-97.0287,29.0,1111122 
NERRS,ioos:station:NOAA.NERRS:marabwq:1,2016-01-10T10:45:00Z,27.9798,-97.0287,28.0,1111122 
NERRS,ioos:station:NOAA.NERRS:marabwq:1,2016-01-10T11:45:00Z,27.9798,-97.0287,13.0,1111122 
NERRS,ioos:station:NOAA.NERRS:marabwq:1,2016-01-10T12:45:00Z,27.9798,-97.0287,12.0,1111122 
NERRS,ioos:station:NOAA.NERRS:marabwq:1,2016-01-10T13:45:00Z,27.9798,-97.0287,8.0,1111122 
NERRS,ioos:station:NOAA.NERRS:marabwq:1,2016-01-10T14:45:00Z,27.9798,-97.0287,7.0,1111122 
NERRS,ioos:station:NOAA.NERRS:marabwq:1,2016-01-10T15:45:00Z,27.9798,-97.0287,7.0,1111122 
NERRS,ioos:station:NOAA.NERRS:marabwq:1,2016-01-10T16:45:00Z,27.9798,-97.0287,5.0,1111122 
NERRS,ioos:station:NOAA.NERRS:marabwq:1,2016-01-10T17:45:00Z,27.9798,-97.0287,4.0,1111122 
NERRS,ioos:station:NOAA.NERRS:marabwq:1,2016-01-10T18:45:00Z,27.9798,-97.0287,5.0,1111122 
NERRS,ioos:station:NOAA.NERRS:marabwq:1,2016-01-10T20:45:00Z,27.9798,-97.0287,3.0,1111122 
NERRS,ioos:station:NOAA.NERRS:marabwq:1,2016-01-10T21:45:00Z,27.9798,-97.0287,3.0,1111122 
NERRS,ioos:station:NOAA.NERRS:marabwq:1,2016-01-10T22:45:00Z,27.9798,-97.0287,4.0,1111122 
NERRS,ioos:station:NOAA.NERRS:marabwq:1,2016-01-10T23:45:00Z,27.9798,-97.0287,5.0,1111122 
NERRS,ioos:station:NOAA.NERRS:marabwq:1,2016-01-11T00:45:00Z,27.9798,-97.0287,3.0,1111122 
NERRS,ioos:station:NOAA.NERRS:marabwq:1,2016-01-11T01:45:00Z,27.9798,-97.0287,4.0,1111122 
NERRS,ioos:station:NOAA.NERRS:marabwq:1,2016-01-11T02:45:00Z,27.9798,-97.0287,3.0,1111122 
NERRS,ioos:station:NOAA.NERRS:marabwq:1,2016-01-11T03:45:00Z,27.9798,-97.0287,3.0,1111122 
NERRS,ioos:station:NOAA.NERRS:marabwq:1,2016-01-11T04:45:00Z,27.9798,-97.0287,4.0,1111122 
NERRS,ioos:station:NOAA.NERRS:marabwq:1,2016-01-11T05:45:00Z,27.9798,-97.0287,5.0,1111122 
NERRS,ioos:station:NOAA.NERRS:marabwq:1,2016-01-11T06:45:00Z,27.9798,-97.0287,5.0,1111122 
NERRS,ioos:station:NOAA.NERRS:marabwq:1,2016-01-11T07:45:00Z,27.9798,-97.0287,3.0,1111122 
NERRS,ioos:station:NOAA.NERRS:marabwq:1,2016-01-11T09:45:00Z,27.9798,-97.0287,4.0,1111122 
NERRS,ioos:station:NOAA.NERRS:marabwq:1,2016-01-11T10:45:00Z,27.9798,-97.0287,4.0,1111122 
NERRS,ioos:station:NOAA.NERRS:marabwq:1,2016-01-11T11:45:00Z,27.9798,-97.0287,4.0,1111122 
NERRS,ioos:station:NOAA.NERRS:marabwq:1,2016-01-11T12:45:00Z,27.9798,-97.0287,11.0,1111122 
NERRS,ioos:station:NOAA.NERRS:marabwq:1,2016-01-11T13:45:00Z,27.9798,-97.0287,7.0,1111122 
NERRS,ioos:station:NOAA.NERRS:marabwq:1,2016-01-11T14:45:00Z,27.9798,-97.0287,7.0,1111122 
NERRS,ioos:station:NOAA.NERRS:marabwq:1,2016-01-11T15:45:00Z,27.9798,-97.0287,7.0,1111122 
NERRS,ioos:station:NOAA.NERRS:marabwq:1,2016-01-11T16:45:00Z,27.9798,-97.0287,7.0,1111122 
NERRS,ioos:station:NOAA.NERRS:marabwq:1,2016-01-11T17:45:00Z,27.9798,-97.0287,4.0,1111122 
NERRS,ioos:station:NOAA.NERRS:marabwq:1,2016-01-11T18:45:00Z,27.9798,-97.0287,3.0,1111122 
NERRS,ioos:station:NOAA.NERRS:marabwq:1,2016-01-11T19:45:00Z,27.9798,-97.0287,4.0,1111122 
NERRS,ioos:station:NOAA.NERRS:marabwq:1,2016-01-11T20:45:00Z,27.9798,-97.0287,4.0,1111122 
NERRS,ioos:station:NOAA.NERRS:marabwq:1,2016-01-11T21:45:00Z,27.9798,-97.0287,3.0,1111122 
NERRS,ioos:station:NOAA.NERRS:marabwq:1,2016-01-11T22:45:00Z,27.9798,-97.0287,4.0,1111122 
NERRS,ioos:station:NOAA.NERRS:marabwq:1,2016-01-11T23:45:00Z,27.9798,-97.0287,8.0,1111122 
NERRS,ioos:station:NOAA.NERRS:marabwq:1,2016-01-12T00:45:00Z,27.9798,-97.0287,6.0,1111122 
NERRS,ioos:station:NOAA.NERRS:marabwq:1,2016-01-12T01:45:00Z,27.9798,-97.0287,7.0,1111122 
NERRS,ioos:station:NOAA.NERRS:marabwq:1,2016-01-12T02:45:00Z,27.9798,-97.0287,10.0,1111122 
NERRS,ioos:station:NOAA.NERRS:marabwq:1,2016-01-12T03:45:00Z,27.9798,-97.0287,10.0,1111122 
NERRS,ioos:station:NOAA.NERRS:marabwq:1,2016-01-12T04:45:00Z,27.9798,-97.0287,9.0,1111122 
NERRS,ioos:station:NOAA.NERRS:marabwq:1,2016-01-12T05:45:00Z,27.9798,-97.0287,11.0,1111122 
NERRS,ioos:station:NOAA.NERRS:marabwq:1,2016-01-12T06:45:00Z,27.9798,-97.0287,7.0,1111122 
NERRS,ioos:station:NOAA.NERRS:marabwq:1,2016-01-12T07:45:00Z,27.9798,-97.0287,5.0,1111122 
NERRS,ioos:station:NOAA.NERRS:marabwq:1,2016-01-12T08:45:00Z,27.9798,-97.0287,8.0,1111122 
NERRS,ioos:station:NOAA.NERRS:marabwq:1,2016-01-12T09:45:00Z,27.9798,-97.0287,9.0,1111122 
NERRS,ioos:station:NOAA.NERRS:marabwq:1,2016-01-12T10:45:00Z,27.9798,-97.0287,6.0,1111122 
NERRS,ioos:station:NOAA.NERRS:marabwq:1,2016-01-12T11:45:00Z,27.9798,-97.0287,7.0,1111122 
NERRS,ioos:station:NOAA.NERRS:marabwq:1,2016-01-12T12:45:00Z,27.9798,-97.0287,5.0,1111122 
NERRS,ioos:station:NOAA.NERRS:marabwq:1,2016-01-12T13:45:00Z,27.9798,-97.0287,4.0,1111122 
NERRS,ioos:station:NOAA.NERRS:marabwq:1,2016-01-12T14:45:00Z,27.9798,-97.0287,5.0,1111122 
NERRS,ioos:station:NOAA.NERRS:marabwq:1,2016-01-12T15:45:00Z,27.9798,-97.0287,4.0,1111122 
NERRS,ioos:station:NOAA.NERRS:marabwq:1,2016-01-12T17:45:00Z,27.9798,-97.0287,3.0,1111122 
NERRS,ioos:station:NOAA.NERRS:marabwq:1,2016-01-12T18:45:00Z,27.9798,-97.0287,3.0,1111122 
NERRS,ioos:station:NOAA.NERRS:marabwq:1,2016-01-12T20:45:00Z,27.9798,-97.0287,3.0,1111122 
NERRS,ioos:station:NOAA.NERRS:marabwq:1,2016-01-12T22:45:00Z,27.9798,-97.0287,4.0,1111122 
NERRS,ioos:station:NOAA.NERRS:marabwq:1,2016-01-12T23:45:00Z,27.9798,-97.0287,2.0,1111122 
NERRS,ioos:station:NOAA.NERRS:marabwq:1,2016-01-13T00:45:00Z,27.9798,-97.0287,3.0,1111122 
NERRS,ioos:station:NOAA.NERRS:marabwq:1,2016-01-13T01:45:00Z,27.9798,-97.0287,2.0,1111122 
NERRS,ioos:station:NOAA.NERRS:marabwq:1,2016-01-13T02:45:00Z,27.9798,-97.0287,2.0,1111122 
NERRS,ioos:station:NOAA.NERRS:marabwq:1,2016-01-13T03:45:00Z,27.9798,-97.0287,3.0,1111122 
NERRS,ioos:station:NOAA.NERRS:marabwq:1,2016-01-13T04:45:00Z,27.9798,-97.0287,2.0,1111122 
NERRS,ioos:station:NOAA.NERRS:marabwq:1,2016-01-13T05:45:00Z,27.9798,-97.0287,2.0,1111122 
NERRS,ioos:station:NOAA.NERRS:marabwq:1,2016-01-13T06:45:00Z,27.9798,-97.0287,3.0,1111122 
NERRS,ioos:station:NOAA.NERRS:marabwq:1,2016-01-13T07:45:00Z,27.9798,-97.0287,3.0,1111122 
NERRS,ioos:station:NOAA.NERRS:marabwq:1,2016-01-13T08:45:00Z,27.9798,-97.0287,3.0,1111122 
NERRS,ioos:station:NOAA.NERRS:marabwq:1,2016-01-13T09:45:00Z,27.9798,-97.0287,2.0,1111122 
NERRS,ioos:station:NOAA.NERRS:marabwq:1,2016-01-13T10:45:00Z,27.9798,-97.0287,3.0,1111122 
NERRS,ioos:station:NOAA.NERRS:marabwq:1,2016-01-13T11:45:00Z,27.9798,-97.0287,5.0,1111122 
NERRS,ioos:station:NOAA.NERRS:marabwq:1,2016-01-13T12:45:00Z,27.9798,-97.0287,2.0,1111122 
NERRS,ioos:station:NOAA.NERRS:marabwq:1,2016-01-13T13:45:00Z,27.9798,-97.0287,3.0,1111122 
NERRS,ioos:station:NOAA.NERRS:marabwq:1,2016-01-13T14:45:00Z,27.9798,-97.0287,10.0,1111122 
NERRS,ioos:station:NOAA.NERRS:marabwq:1,2016-01-13T16:45:00Z,27.9798,-97.0287,4.0,1111122 
NERRS,ioos:station:NOAA.NERRS:marabwq:1,2016-01-13T17:45:00Z,27.9798,-97.0287,3.0,1111122 
NERRS,ioos:station:NOAA.NERRS:marabwq:1,2016-01-13T18:45:00Z,27.9798,-97.0287,2.0,1111122 
NERRS,ioos:station:NOAA.NERRS:marabwq:1,2016-01-13T19:45:00Z,27.9798,-97.0287,2.0,1111122 
NERRS,ioos:station:NOAA.NERRS:marabwq:1,2016-01-13T20:45:00Z,27.9798,-97.0287,1.0,1111122 
NERRS,ioos:station:NOAA.NERRS:marabwq:1,2016-01-13T21:45:00Z,27.9798,-97.0287,2.0,1111122 
NERRS,ioos:station:NOAA.NERRS:marabwq:1,2016-01-13T23:45:00Z,27.9798,-97.0287,1.0,1111122 
NERRS,ioos:station:NOAA.NERRS:marabwq:1,2016-01-14T00:45:00Z,27.9798,-97.0287,2.0,1111122 
NERRS,ioos:station:NOAA.NERRS:marabwq:1,2016-01-14T01:45:00Z,27.9798,-97.0287,1.0,1111122 
NERRS,ioos:station:NOAA.NERRS:marabwq:1,2016-01-14T02:45:00Z,27.9798,-97.0287,1.0,1111122 
NERRS,ioos:station:NOAA.NERRS:marabwq:1,2016-01-14T03:45:00Z,27.9798,-97.0287,1.0,1111122 
NERRS,ioos:station:NOAA.NERRS:marabwq:1,2016-01-14T04:45:00Z,27.9798,-97.0287,1.0,1111122 
NERRS,ioos:station:NOAA.NERRS:marabwq:1,2016-01-14T05:45:00Z,27.9798,-97.0287,2.0,1111122 
NERRS,ioos:station:NOAA.NERRS:marabwq:1,2016-01-14T06:45:00Z,27.9798,-97.0287,1.0,1111122 
NERRS,ioos:station:NOAA.NERRS:marabwq:1,2016-01-14T07:45:00Z,27.9798,-97.0287,1.0,1111122 
NERRS,ioos:station:NOAA.NERRS:marabwq:1,2016-01-14T09:45:00Z,27.9798,-97.0287,1.0,1111122 
NERRS,ioos:station:NOAA.NERRS:marabwq:1,2016-01-14T10:45:00Z,27.9798,-97.0287,2.0,1111122 
NERRS,ioos:station:NOAA.NERRS:marabwq:1,2016-01-14T11:45:00Z,27.9798,-97.0287,4.0,1111122 
NERRS,ioos:station:NOAA.NERRS:marabwq:1,2016-01-14T12:45:00Z,27.9798,-97.0287,2.0,1111122 
NERRS,ioos:station:NOAA.NERRS:marabwq:1,2016-01-14T13:45:00Z,27.9798,-97.0287,3.0,1111122 
NERRS,ioos:station:NOAA.NERRS:marabwq:1,2016-01-14T14:45:00Z,27.9798,-97.0287,2.0,1111122 
NERRS,ioos:station:NOAA.NERRS:marabwq:1,2016-01-14T15:45:00Z,27.9798,-97.0287,1.0,1111122 
NERRS,ioos:station:NOAA.NERRS:marabwq:1,2016-01-14T16:45:00Z,27.9798,-97.0287,1.0,1111122 
NERRS,ioos:station:NOAA.NERRS:marabwq:1,2016-01-14T19:45:00Z,27.9798,-97.0287,1.0,1111122 
NERRS,ioos:station:NOAA.NERRS:marabwq:1,2016-01-14T20:45:00Z,27.9798,-97.0287,1.0,1111122 
NERRS,ioos:station:NOAA.NERRS:marabwq:1,2016-01-14T21:45:00Z,27.9798,-97.0287,2.0,1111122 
NERRS,ioos:station:NOAA.NERRS:marabwq:1,2016-01-14T22:45:00Z,27.9798,-97.0287,1.0,1111122 
NERRS,ioos:station:NOAA.NERRS:marabwq:1,2016-01-14T23:45:00Z,27.9798,-97.0287,2.0,1111122 
NERRS,ioos:station:NOAA.NERRS:marabwq:1,2016-01-15T00:45:00Z,27.9798,-97.0287,1.0,1111122 